Content
SEND FEEDBACK

Daily
Averages
Monthly
Summary
United States of America

MALDEN, MISSOURI


Home > North America > United States > Missouri
Elevation: 295 feet     Latitude: 36 36N     Longitude: 089 59W

WEATHER
 
SELECT A DAY
Number of Records: 207,697;   Date Range: 1/1/95 - 7/26/14
 
SHARE

PRINT THIS DATA

[ ← Previous Day ]
WEATHER ALMANAC - DECEMBER 22, 2013
[ Next Day → ]
[ °C ]   °F
Weather ElementAverageHighLow
Temperature41.5 °F45 °F (6:17 am)34 °F (10:53 pm)
Dewpoint33.7 °F41 °F (6:17 am)23 °F (10:53 pm)
Humidity74.2 %89 % (5:24 am)58 % (1:53 pm)
Barometer29.93 in30.28 in (11:53 pm)29.72 in (1:53 am)
Wind Speed8.7 mph15 mph (4:53 pm)
Wind Gust20.7 mph (5:11 pm)
Weather ElementAverage
Visibility8 mi
Wind DirectionW (275.2 °)

Weather ElementTotal
Precipitation---
Heating Degree Days25.5 (Base 65)
Averaged from 46 records on December 22, 2013
WEATHER CONDITIONS BREAKOUT
WIND DIRECTION BREAKOUT
WEATHER BY HOUR - DECEMBER 22, 2013
[ °C ]   °F
Local TimeTemperatureDewpointHumidityBarometerVisibilityWind DirectionWind SpeedGust SpeedPrecipitationEventsConditions
12:53 AM39.9 °F35.1 °F83 %29.74 in10.0 miWest (260°)10.4 mphOvercast
1:53 AM41.0 °F36.0 °F82 %29.72 in10.0 miWSW (240°)3.5 mphOvercast
2:40 AM41.0 °F37.0 °F86 %29.73 in2.5 miSSW (210°)4.6 mphOvercast
2:53 AM41.0 °F37.0 °F86 %29.75 in2.0 miSSW (200°)5.8 mphOvercast
3:07 AM41.0 °F37.0 °F86 %29.74 in2.0 miSSW (200°)4.6 mphOvercast
3:42 AM42.1 °F37.9 °F85 %29.74 in1.8 miSouth (190°)5.8 mphOvercast
3:53 AM42.1 °F37.9 °F85 %29.76 in2.0 miSouth (190°)4.6 mphOvercast
4:02 AM42.1 °F37.9 °F85 %29.75 in1.8 miSSW (200°)3.5 mphOvercast
4:53 AM43.0 °F39.0 °F86 %29.78 in1.5 miSSW (210°)3.5 mphOvercast
5:12 AM43.0 °F39.0 °F86 %29.78 in2.0 miSW (220°)3.5 mphOvercast
5:24 AM43.0 °F39.9 °F89 %29.79 in1.8 miSW (230°)4.6 mphOvercast
5:43 AM44.1 °F39.9 °F85 %29.81 in2.0 miWSW (240°)3.5 mphOvercast
5:53 AM44.1 °F39.9 °F85 %29.81 in3.0 miWSW (240°)4.6 mphOvercast
6:17 AM45.0 °F41.0 °F86 %29.81 in7.0 miWest (270°)6.9 mphOvercast
6:53 AM44.1 °F39.0 °F82 %29.84 in10.0 miWest (270°)13.8 mph18.4 mphOvercast
7:06 AM44.1 °F39.0 °F82 %29.84 in10.0 miWest (260°)10.4 mphOvercast
7:13 AM44.1 °F39.0 °F82 %29.84 in10.0 miWest (270°)9.2 mphOvercast
7:48 AM44.6 °F37.4 °F76 %29.84 in10.0 miWNW (290°)6.9 mphOvercast
7:53 AM44.1 °F37.9 °F79 %29.86 in10.0 miWNW (290°)6.9 mphMostly Cloudy
8:05 AM44.1 °F37.9 °F79 %29.85 in10.0 miWNW (290°)5.8 mphScattered Clouds
8:39 AM45.0 °F37.9 °F76 %29.86 in10.0 miWNW (300°)4.6 mphMostly Cloudy
8:53 AM45.0 °F37.9 °F76 %29.90 in10.0 miSSW (210°)4.6 mphOvercast
9:33 AM45.0 °F37.0 °F74 %29.90 in10.0 miWNW (290°)9.2 mphOvercast
9:53 AM44.1 °F37.0 °F76 %29.94 in10.0 miWNW (290°)10.4 mphOvercast
10:31 AM44.1 °F35.1 °F71 %29.94 in10.0 miWest (280°)9.2 mphOvercast
10:53 AM43.0 °F35.1 °F74 %29.95 in10.0 miNW (310°)10.4 mphOvercast
11:09 AM44.1 °F35.1 °F71 %29.95 in10.0 miNW (310°)12.7 mphOvercast
11:46 AM44.1 °F32.0 °F63 %29.95 in10.0 miWest (280°)10.4 mphOvercast
11:53 AM44.1 °F32.0 °F63 %29.96 in10.0 miWNW (290°)9.2 mphOvercast
12:53 PM43.0 °F30.9 °F62 %29.98 in10.0 miWNW (290°)8.1 mphOvercast
1:53 PM43.0 °F28.9 °F58 %29.99 in10.0 miWNW (290°)8.1 mphOvercast
2:53 PM43.0 °F30.9 °F62 %30.01 in10.0 miWNW (290°)5.8 mphOvercast
3:32 PM41.0 °F30.9 °F67 %30.02 in10.0 miNW (320°)12.7 mphOvercast
3:40 PM41.0 °F30.9 °F67 %30.02 in10.0 miNNW (330°)9.2 mphOvercast
3:53 PM41.0 °F30.0 °F65 %30.05 in10.0 miWNW (300°)9.2 mphOvercast
4:53 PM39.9 °F28.0 °F63 %30.07 in10.0 miNW (320°)15.0 mphOvercast
5:11 PM39.0 °F28.0 °F65 %30.07 in10.0 miNW (310°)15.0 mph20.7 mphOvercast
5:38 PM37.9 °F27.0 °F65 %30.09 in10.0 miNW (320°)15.0 mphOvercast
5:53 PM37.0 °F26.1 °F65 %30.12 in10.0 miNW (310°)15.0 mphOvercast
6:37 PM37.0 °F25.0 °F62 %30.13 in10.0 miNW (320°)13.8 mphOvercast
6:53 PM37.0 °F25.0 °F62 %30.14 in10.0 miNNW (330°)13.8 mphOvercast
7:53 PM36.0 °F26.1 °F67 %30.18 in10.0 miNNW (330°)9.2 mphOvercast
8:53 PM36.0 °F26.1 °F67 %30.20 in10.0 miNW (320°)8.1 mphOvercast
9:53 PM35.1 °F24.1 °F64 %30.22 in10.0 miNW (310°)13.8 mphOvercast
10:53 PM34.0 °F23.0 °F64 %30.27 in10.0 miNNW (330°)11.5 mphOvercast
11:53 PM34.0 °F24.1 °F67 %30.28 in10.0 miNW (310°)12.7 mphOvercast
Hourly data recorded from KPOF, located miles away from Malden, Missouri







STORIES FROM OUR PARTNERS